Weather History for Pau, France

Change the Weather History Date:

Sunday, October 7, 2012

  Actual Average Record
Temperature  
Mean Temperature 68 °F -  
Max Temperature 75 °F 63 °F 80 °F (2010)
Min Temperature 62 °F 47 °F 39 °F (2000)
Cooling Degree Days 4    
Growing Degree Days 18 (Base 50)    
Moisture  
Dew Point 60 °F    
Average Humidity 76    
Maximum Humidity 94    
Minimum Humidity 53    
Precipitation  
Precipitation 0.00 in - - ()
Sea Level Pressure  
Sea Level Pressure 30.15 in    
Wind  
Wind Speed 3 mph ()    
Max Wind Speed 14 mph    
Max Gust Speed -    
Visibility 6.2 miles    
Events      
Averages and records for this station are not official NWS values.
T = Trace of Precipitation, MM = Missing Value Source: Averaged Metar Reports

Daily Weather History Graph

Daily Weather History Graph

Search for Another Location

Airport:

Trip Planner

Search our weather history database for the weather conditions in past years. The results will help you decide how hot, cold, wet, or windy it might be!

Date:

Astronomy

Oct. 07, 2012 Rise Set
Actual Time 8:06 AM CEST 7:31 PM CEST
Civil Twilight 7:37 AM CEST 8:00 PM CEST
Nautical Twilight 7:04 AM CEST 8:33 PM CEST
Astronomical Twilight 6:31 AM CEST 9:06 PM CEST
Moon No Moon Rise 2:40 PM CEST (10/7)
Length of Visible Light 12h 22m
Length of Day
11h 25m
Waning Gibbous, 58% of the Moon is Illuminated
Oct 7
Waning Gibbous
Oct 8
Last Quarter
Oct 15
New
Oct 22
First Quarter
Oct 29
Full

Hourly Weather History & Observations

Time (CEST) Temp. Dew Point Humidity Pressure Visibility Wind Dir Wind Speed Gust Speed Precip Events Conditions
12:00 AM 66.2 °F 59.0 °F 78% 30.12 in 6.2 mi East 2.3 mph - N/A   Mostly Cloudy
12:30 AM 64.4 °F 59.0 °F 83% 30.12 in 6.2 mi Calm Calm - N/A   Overcast
1:00 AM 66.2 °F 59.0 °F 78% 30.12 in 6.2 mi SE 3.5 mph - N/A   Overcast
1:30 AM 64.4 °F 59.0 °F 83% 30.12 in 6.2 mi ESE 2.3 mph - N/A   Overcast
2:00 AM 66.2 °F 59.0 °F 78% 30.12 in 6.2 mi SSE 5.8 mph - N/A   Overcast
2:30 AM 66.2 °F 59.0 °F 78% 30.12 in 6.2 mi SE 3.5 mph - N/A   Overcast
3:00 AM 64.4 °F 59.0 °F 83% 30.12 in 6.2 mi East 3.5 mph - N/A   Overcast
3:30 AM 64.4 °F 59.0 °F 83% 30.12 in 6.2 mi East 3.5 mph - N/A   Overcast
4:00 AM 64.4 °F 59.0 °F 83% 30.12 in 6.2 mi Variable 2.3 mph - N/A   Overcast
4:30 AM 64.4 °F 59.0 °F 83% 30.12 in 6.2 mi East 2.3 mph - N/A   Overcast
5:00 AM 66.2 °F 57.2 °F 73% 30.12 in 6.2 mi SE 5.8 mph - N/A   Overcast
5:30 AM 66.2 °F 57.2 °F 73% 30.12 in 6.2 mi ESE 2.3 mph - N/A   Overcast
6:00 AM 64.4 °F 59.0 °F 83% 30.09 in 6.2 mi SSE 4.6 mph - N/A   Overcast
6:30 AM 64.4 °F 57.2 °F 77% 30.09 in 6.2 mi Variable 2.3 mph - N/A   Overcast
7:00 AM 64.4 °F 59.0 °F 83% 30.12 in 6.2 mi SSE 3.5 mph - N/A   Mostly Cloudy
7:30 AM 64.4 °F 57.2 °F 77% 30.12 in 6.2 mi SE 3.5 mph - N/A   Mostly Cloudy
8:00 AM 64.4 °F 57.2 °F 77% 30.12 in 6.2 mi Calm Calm - N/A   Overcast
8:30 AM 62.6 °F 59.0 °F 88% 30.12 in 6.2 mi Calm Calm - N/A   Overcast
9:00 AM 64.4 °F 57.2 °F 77% 30.12 in 6.2 mi Calm Calm - N/A   Overcast
9:30 AM 64.4 °F 59.0 °F 83% 30.15 in 6.2 mi Calm Calm - N/A   Mostly Cloudy
10:00 AM 68.0 °F 59.0 °F 73% 30.12 in 6.2 mi SE 4.6 mph - N/A   Mostly Cloudy
10:30 AM 71.6 °F 59.0 °F 64% 30.15 in 6.2 mi Variable 2.3 mph - N/A   Mostly Cloudy
11:00 AM 71.6 °F 60.8 °F 69% 30.15 in 6.2 mi Variable 3.5 mph - N/A   Mostly Cloudy
11:30 AM 71.6 °F 59.0 °F 64% 30.15 in 6.2 mi SSE 3.5 mph - N/A   Mostly Cloudy
12:00 PM 73.4 °F 59.0 °F 61% 30.15 in 6.2 mi Variable 2.3 mph - N/A   Mostly Cloudy
12:30 PM 75.2 °F 57.2 °F 53% 30.15 in 6.2 mi Calm Calm - N/A   Mostly Cloudy
1:00 PM 75.2 °F 57.2 °F 53% 30.15 in 6.2 mi WNW 3.5 mph - N/A   Mostly Cloudy
1:30 PM 75.2 °F 57.2 °F 53% 30.18 in 6.2 mi West 11.5 mph - N/A   Mostly Cloudy
2:30 PM 71.6 °F 62.6 °F 73% 30.18 in 6.2 mi NW 12.7 mph - N/A   Mostly Cloudy
3:00 PM 71.6 °F 62.6 °F 73% 30.18 in 6.2 mi WNW 8.1 mph - N/A   Overcast
3:30 PM 71.6 °F 62.6 °F 73% 30.18 in 6.2 mi West 11.5 mph - N/A   Overcast
4:00 PM 69.8 °F 62.6 °F 78% 30.18 in 6.2 mi West 13.8 mph - N/A   Mostly Cloudy
4:30 PM 71.6 °F 62.6 °F 73% 30.18 in 6.2 mi West 6.9 mph - N/A   Mostly Cloudy
5:00 PM 71.6 °F 62.6 °F 73% 30.18 in 6.2 mi WNW 8.1 mph - N/A   Mostly Cloudy
5:30 PM 71.6 °F 62.6 °F 73% 30.18 in 6.2 mi NW 5.8 mph - N/A   Mostly Cloudy
6:00 PM 71.6 °F 62.6 °F 73% 30.18 in 6.2 mi WNW 6.9 mph - N/A   Mostly Cloudy
6:30 PM 71.6 °F 62.6 °F 73% 30.18 in 6.2 mi West 6.9 mph - N/A   Mostly Cloudy
7:00 PM 71.6 °F 62.6 °F 73% 30.18 in 6.2 mi West 4.6 mph - N/A   Mostly Cloudy
7:30 PM 71.6 °F 62.6 °F 73% 30.18 in 6.2 mi West 3.5 mph - N/A   Mostly Cloudy
8:00 PM 69.8 °F 62.6 °F 78% 30.18 in 6.2 mi NW 3.5 mph - N/A   Overcast
8:30 PM 68.0 °F 62.6 °F 83% 30.18 in 6.2 mi NNW 3.5 mph - N/A   Overcast
9:00 PM 66.2 °F 60.8 °F 83% 30.18 in 6.2 mi Variable 1.2 mph - N/A   Mostly Cloudy
9:30 PM 66.2 °F 60.8 °F 83% 30.18 in 6.2 mi West 2.3 mph - N/A   Partly Cloudy
10:00 PM 64.4 °F 60.8 °F 88% 30.18 in 6.2 mi Calm Calm - N/A   Partly Cloudy
10:30 PM 64.4 °F 60.8 °F 88% 30.18 in 6.2 mi SSE 2.3 mph - N/A   Unknown
11:00 PM 64.4 °F 60.8 °F 88% 30.18 in 6.2 mi South 3.5 mph - N/A   Unknown
11:30 PM 62.6 °F 60.8 °F 94% 30.18 in 6.2 mi Variable 3.5 mph - N/A   Unknown